FENGYUN 1C DEB, 36258

Orbit data source: Space-Track

FENGYUN 1C DEB, 36258 is space debris in SSO originally from a launch on Mon, 10 May 1999 UTC launched from the Taiyaun Space Center, China (TSC). Fengyun 1C debris stems from the Chinese weather satellite Fengyun-1C, which was intentionally destroyed by a Chinese anti-satellite missile in 2007. This event dramatically increased the amount of space debris, with thousands of trackable fragments posing hazards to satellites and human spaceflight. The Fengyun 1C debris cloud has become a focal point in discussions about space sustainability and the need for international regulations to prevent the creation of new debris.

Loading next visibility...
Identifier
36258, 1999-025DWK
Orbit
SSO
Country
Flag of CNCN / PRC
Related business
Manufacturer
Unknown
Mission
Spacecraft
Bus & Motor
Unknown
Mass
Unknown
Launch date (UTC)
1999-05-10 (27 years ago)
Launch vehicle
Unknown
Launch site
Taiyaun Space Center, China (TSC)
Object type
Payload
Rocket body
Debris
Shape & HBR
Unknown shape, 0.1 m
Radar Cross Section
Small (<0.1 m²)

Expand to show TLE details & history
Last TLE update: 15 hours ago

TLE from 15 hours ago
0 FENGYUN 1C DEB
1 36258U 99025DWK 26256.43864082  .00001257  00000-0  15298-3 0  9998
2 36258  99.0537 324.2086 0168730 349.3698  10.3958 14.76190558948734
Epoch: 2026-09-13T10:31Z
TLE epoch observation values (Epoch: 2026-09-13T10:31:38.566Z)
Latitude
-0.00002°
Longitude
173.86463°
Altitude
527.902 km
Speed
7.662 km/s
True Right ascension
21h 36m 50s
True Declination
0° 00' 00"
Sunlit
Object was in full shadow at epoch
Visualization orbit readout
Latitude
Unknown
Longitude
Unknown
Altitude
Unknown
Speed
Unknown
Apparent Right ascension
Unknown
Apparent Declination
Unknown
Sunlit
N/A
Visualization observer readout
Local Sidereal Time
17:48:03
Azimuth
Unknown
Elevation
Unknown
Doppler factor
Unknown
Orbital elements
Apogee altitude
756.866 km
Perigee altitude
520.083 km
Semi-major axis
7,016.611 km
Eccentricity
0.01687
Inclination
99.0537°
RAAN
324.2086°
Arg. of periapsis
349.3698°
True anomaly
10.75208°
Mean anomaly
10.3958°
Eccentric anomaly
10.57319°
Mean motion
3.69277 °/min
Orbital period
97.49 mins
BSTAR
0.00015298
Loading maneuver chart data...
Computing Atmospheric mass density...
Loading historical data...
Loading historical data...
Loading historical data...
Loading historical data...
Loading historical data...
Loading historical data...
Loading historical data...

Documentation

Showing up to 5 results
|